Home   Weather   Fregenal de la Sierra   Past weeks
Flag for Spain

Past Weather in Fregenal de la Sierra, Badajoz, Spain — Yesterday and Last 2 Weeks

Now
64 °F

Passing clouds.


Feels Like: 64 °F
Forecast: 76 / 56 °F
Wind: 21 mph from West

Location: Rota Airport

Current Time: May 19, 2019 at 10:45:06 pm

Latest Report: May 19, 2019 at 10:00 pm


Visibility: N/A

Pressure: 29.92 "Hg

Humidity: 88%

Dew Point: 61 °F

Location of Fregenal de la SierraLocation

Past Weather in Fregenal de la Sierra — Graph

°F

Fregenal de la Sierra Temperature Yesterday

Maximum temperature yesterday: 68 °F (at 3:00 pm)
Minimum temperature yesterday: 57 °F (at 7:00 am)
Average temperature yesterday: 63 °F

High & Low Weather Summary for the Past Weeks

 TemperatureHumidityPressure
High86 °F (May 11, 2:00 pm)94% (May 7, 7:00 am)30.12 "Hg (May 7, 7:00 am)
Low54 °F (May 7, 7:00 am)24% (May 14, 4:00 pm)29.83 "Hg (May 15, 7:00 pm)
Average68 °F64%29.99 "Hg
* Reported May 4 9:00 pm — May 19 9:00 pm, Fregenal de la Sierra. Weather by CustomWeather, © 2019

Note: Actual official high and low records may vary slightly from our data, if they occured in-between our weather recording intervals... More about our weather records

Advertising

Fregenal de la Sierra Weather History for the Previous 24 Hours

Scroll right to see more
 ConditionsComfort  
Time TempWeatherWind HumidityBarometerVisibility
9:00 pm
Sun, May 19
64 °FPassing clouds.21 mph83%29.92 "HgN/A
8:00 pm66 °FPassing clouds.21 mph78%29.92 "HgN/A
7:00 pm68 °FPassing clouds.21 mph73%29.92 "HgN/A
6:00 pm68 °FSunny.22 mph69%29.92 "Hg10 mi
5:00 pm68 °FSunny.20 mph69%29.95 "Hg10 mi
4:00 pm68 °FPassing clouds.17 mph60%29.95 "HgN/A
3:00 pm66 °FPassing clouds.16 mph60%29.98 "HgN/A
2:00 pm66 °FPassing clouds.13 mph56%29.98 "HgN/A
1:00 pm64 °FPassing clouds.10 mph56%29.98 "HgN/A
12:00 pm64 °FPassing clouds.12 mph52%29.98 "HgN/A
11:00 am64 °FPassing clouds.15 mph56%29.98 "HgN/A
10:00 am63 °FPassing clouds.16 mph59%29.98 "HgN/A
9:00 am63 °FPassing clouds.15 mph59%29.98 "HgN/A
8:00 am61 °FPassing clouds.10 mph59%29.95 "HgN/A
7:00 am61 °FClear.9 mph63%29.95 "Hg10 mi
6:00 am61 °FPassing clouds.7 mph68%29.95 "HgN/A
5:00 am61 °FPassing clouds.10 mph63%29.95 "HgN/A
4:00 am63 °FPassing clouds.12 mph64%29.95 "HgN/A
3:00 am63 °FPassing clouds.10 mph64%29.95 "HgN/A
2:00 am63 °FPassing clouds.10 mph64%29.98 "HgN/A
1:00 am64 °FPassing clouds.13 mph52%29.98 "HgN/A
12:00 am66 °FPassing clouds.12 mph56%29.98 "HgN/A
11:00 pm
Sat, May 18
64 °FPassing clouds.7 mph68%29.95 "HgN/A
10:00 pm64 °FClear.13 mph78%29.95 "Hg10 mi
Weather by CustomWeather, © 2019

See weather overview